Regional Weather Roundup
Issued by NWS

Home | Current Version | Previous Version | Graphics & Text | Print | Product List | Glossary On
Versions: 1 2 3 4 5 6 7 8 9 10 11 12 13 14 15 16 17 18 19 20 21 22 23 24 25 26 27 28 29 30 31 32 33 34 35 36 37 38 39 40 41 42 43 44 45 46 47 48 49 50
000
ASUS43 KLOT 202300
RWRIL

ILLINOIS REGIONAL WEATHER ROUNDUP
NATIONAL WEATHER SERVICE CHICAGO/ROMEOVILLE IL
600 PM CDT SUN APR 20 2014

NOTE: "FAIR" INDICATES FEW OR NO CLOUDS BELOW 12,000 FEET WITH NO
SIGNIFICANT WEATHER AND/OR OBSTRUCTIONS TO VISIBILITY.

* THESE STATIONS ARE NOT UNDER NWS QUALITY CONTROL. THEY ALSO MAY NOT
  REPORT WEATHER SUCH AS PRECIPITATION OR FOG.

ILZ001-002-007-009-015-016-024-210000-
NORTHWEST ILLINOIS

CITY           SKY/WX    TMP DP  RH WIND       PRES   REMARKS
MOLINE         MOSUNNY   80  44  27 SW12      30.00S
STERLING*      MOSUNNY   81  43  26 S6        30.02S
$$

ILZ003-004-008-010-011-017-018-210000-
NORTH CENTRAL ILLINOIS

CITY           SKY/WX    TMP DP  RH WIND       PRES   REMARKS
ROCKFORD       PTSUNNY   79  38  22 SW13      30.04F
$$

ILZ005-006-012>014-019>023-210000-
NORTHEAST ILLINOIS

CITY           SKY/WX    TMP DP  RH WIND       PRES   REMARKS
CHICAGO-OHARE  PTSUNNY   77  39  25 S12       30.05F
CHICAGO-MIDWAY PTSUNNY   78  38  23 SW14      30.07S
AURORA         SUNNY     77  40  26 S10       30.06F
WAUKEGAN       PTSUNNY   63  37  38 SE14      30.06F
DUPAGE AIRPORT SUNNY     77  41  27 S9        30.05F
WHEELING       MOSUNNY   78  40  25 S10       30.07S
NORTHERLY ISL    N/A     58  41  53 SE1         N/A
$$

LMZ740>746-210000-
SOUTHERN LAKE MICHIGAN

STATION/POSITION SKY/WX   TEMP    WIND        PRES    VSBY  WAVE
                          AIR SEA DIR/SP/G                  HT/PER
                          (F)     (DEG/KT/KT) (MB)    (MI)  (FT/S)
WAUKEGAN HARBOR            51     190/  7/  9 1019.3F
HARRISON CRIB              61     110/ 19/ 20   N/A
BURNHAM HARBOR             58     190/  2/  9   N/A
CALUMET HARBOR                    160/  8/ 11 1019.2F
MICHIGAN CITY              62      40/ 12/ 13   N/A
$$

ILZ025>027-034>036-040-047-049-050-058-095>099-210000-
WEST-CENTRAL ILLINOIS

CITY           SKY/WX    TMP DP  RH WIND       PRES   REMARKS
QUINCY         MOSUNNY   79  46  31 S10       30.03F
$$

ILZ028>032-037-038-041>044-048-051>054-059>061-210000-
CENTRAL ILLINOIS

CITY           SKY/WX    TMP DP  RH WIND       PRES   REMARKS
DECATUR        MOSUNNY   75  41  29 S13       30.09S
PEORIA         MOSUNNY   79  41  25 SW13      30.04S
SPRINGFIELD    MOSUNNY   79  40  24 S13       30.07S
TAYLORVILLE    NOT AVBL
$$

ILZ033-039-045-046-055>057-062-063-210000-
EAST-CENTRAL ILLINOIS

CITY           SKY/WX    TMP DP  RH WIND       PRES   REMARKS
CHAMPAIGN      SUNNY     77  39  25 S12       30.09F
MATTOON        MOSUNNY   73  44  35 S9        30.10F
$$

ILZ079-100>102-210000-
SOUTHWEST ILLINOIS

CITY           SKY/WX    TMP DP  RH WIND       PRES   REMARKS
BELLEVILLE     SUNNY     77  45  32 S9        30.06F
CAHOKIA*       MOSUNNY   78  44  29 SE12      30.05F
$$

ILZ064>066-069>071-074>076-080>082-084>086-088>090-092>094-210000-
SOUTH-CENTRAL ILLINOIS

CITY           SKY/WX    TMP DP  RH WIND       PRES   REMARKS
CARBONDALE     PTSUNNY   74  46  36 S8        30.09S
MARION         PTSUNNY   77  43  29 S9        30.11F
MT. VERNON     MOSUNNY   77  45  31 S6        30.11S
$$

ILZ067-068-072-073-078-083-087-091-210000-
SOUTHEAST ILLINOIS

CITY           SKY/WX    TMP DP  RH WIND       PRES   REMARKS
ROBINSON*      SUNNY     76  43  31 S5        30.12F
$$

ABBREVIATIONS USED IN REMARKS
   TC - TEMPERATURE IN CELSIUS
  WCI - WIND CHILL INDEX
   HX - HEAT INDEX
  VSB - VISIBILITY
$$




USA.gov is the U.S. government's official web portal to all federal, state and local government web resources and services.